AirNav   Pilot Hours Calculator
 
 1302 users online  

0W0 Seattle Seaplanes Seaplane Base
Seattle, Washington, USA

GOING TO SEATTLE?


FAA INFORMATION EFFECTIVE 01 DECEMBER 2022

Location

FAA Identifier: 0W0
Lat/Long: 47-37-39.3530N 122-19-54.4570W
47-37.655883N 122-19.907617W
47.6275981,-122.3317936
(estimated)
Elevation: 14 ft. / 4 m (estimated)
Variation: 21E (1980)
From city: 1 mile N of SEATTLE, WA
Time zone: UTC -8 (UTC -7 during Daylight Saving Time)
Zip code: 98109

Seaplane Base Operations

Seaplane Base use: Open to the public
Activation date: 04/1986
Control tower: no
ARTCC: SEATTLE CENTER
FSS: SEATTLE FLIGHT SERVICE STATION
NOTAMs facility: SEA (NOTAM-D service available)
Attendance: 0800-DUSK
Wind indicator: yes
Segmented circle: no

Seaplane Base Communications

CTAF: 122.9
WX ASOS at BFI (6 nm S): PHONE 206-658-6435
WX ASOS at RNT (9 nm SE): 126.95 (425-255-6080)
WX ASOS at SEA (11 nm S): PHONE 206-214-2592
WX ASOS at PAE (17 nm N): PHONE 425-355-6192
WX AWOS-3PT at PWT (19 nm SW): 121.2 (360-674-2811)

Nearby radio navigation aids

VOR radial/distance  VOR name  Freq  Var
SEAr337/11.6SEATTLE VORTAC116.8019E
PAEr167/17.7PAINE VOR/DME110.6020E

Seaplane Base Services

Airframe service: MINOR
Powerplant service: MINOR

Runway Information

Runway 18W/36W

Dimensions: 9500 x 300 ft. / 2896 x 91 m
Surface: water, in excellent condition
RUNWAY 18W  RUNWAY 36W
Traffic pattern: leftleft

Seaplane Base Ownership and Management from official FAA records

Ownership: Privately-owned
Owner: SEATTLE SEAPLANES
1325 FAIRVIEW EAST
SEATTLE, WA 98102
Phone 206-329-9638
Manager: JIM CHRYSLER
1325 FAIRVIEW EAST
SEATTLE, WA 98102
Phone 206-329-9638

Seaplane Base Operational Statistics

Aircraft based on the field: 4
Single engine airplanes: 4
    
Aircraft operations: avg 50/week *
96% air taxi
2% transient general aviation
2% local general aviation
* for 12-month period ending 31 December 2019

Additional Remarks

SMALL WATERCRAFT ACTVT ON LAKE.
FOR CD CTC SEATTLE APCH AT 206-214-4722.

Instrument Procedures

There are no published instrument procedures at 0W0.

Some nearby airports with instrument procedures:

KBFI - Boeing Field/King County International Airport (6 nm S)
KRNT - Renton Municipal Airport (9 nm SE)
KSEA - Seattle-Tacoma International Airport (11 nm S)
KPAE - Snohomish County Airport (Paine Field) (17 nm N)
S50 - Auburn Municipal Airport (18 nm S)
S43 - Harvey Field Airport (19 nm NE)
KPWT - Bremerton National Airport (19 nm SW)
 
Loc | Ops | Rwys | IFR | FBO | Links
Com | Nav | Svcs | Stats | Notes
Area around 0W0 (Seattle Seaplanes Seaplane Base)
 
Road maps at: MapQuest Bing Google
 
Aerial photo
WARNING: Photo may not be current or correct
Aerial photo of 0W0 (Seattle Seaplanes Seaplane Base)
Photo taken 24-Jan-2007

Do you have a better or more recent aerial photo of Seattle Seaplanes Seaplane Base that you would like to share? If so, please send us your photo.

 
Sectional chart

 
Airport distance calculator
Flying to Seattle Seaplanes Seaplane Base? Find the distance to fly.

From to 0W0

Sunrise and sunset
Times for 07-Dec-2022
 Local
(UTC-8)
 Zulu
(UTC)
Morning civil twilight07:0915:09
Sunrise07:4515:45
Sunset16:1700:17
Evening civil twilight16:5300:53

Current date and time
Zulu (UTC)  08-Dec-2022 00:28:12
Local (UTC-8)  07-Dec-2022 16:28:12
 
METAR
KBFI 
5nm S 
072353Z 17008KT 10SM OVC050 07/01 A3007 RMK AO2 SLP181 T00720006 10078 20050 56009
KRNT 
9nm SE 
072353Z 15004KT 10SM OVC050 08/01 A3007 RMK AO2 SLP187 T00780011 10083 20056 56008
KSEA 
11nm S 
072353Z 17009KT 10SM BKN046 07/M01 A3006 RMK AO2 SLP187 T00671006 10072 20050 56009
KPAE 
17nm N 
072353Z 17007KT 10SM OVC045 06/01 A3005 RMK AO2 SLP179 T00610006 10072 20050 56009
KPWT 
19nm SW 
072356Z AUTO 10SM BKN037 OVC047 05/04 A3005 RMK AO2 RAE2257 SLP185 60000 T00500039 10056 20044 56011
TAF
KBFI 
5nm S 
071720Z 0718/0818 14007KT P6SM SCT030 OVC045 FM072200 16004KT P6SM BKN045 BKN060 FM080800 15010KT P6SM -RA BKN025 OVC040 FM081500 16009KT P6SM -SHRA OVC025
KSEA 
11nm S 
072052Z 0721/0824 16005KT P6SM SCT025 OVC040 FM072200 17007KT P6SM BKN040 BKN060 FM080800 14012KT P6SM -RA BKN020 OVC040 FM081500 19012G18KT 4SM -SHRA BR OVC020 FM082100 20010KT P6SM VCSH BKN035
KPAE 
17nm N 
071945Z 0720/0818 14006KT P6SM BKN035 OVC050 FM072200 16010KT P6SM BKN035 OVC050 FM080300 15012G20KT P6SM OVC035 FM080800 14015G25KT P6SM -RA BKN025 OVC040 FM081400 17012G20KT 6SM -SHRA BR BKN014 OVC022
KPWT 
19nm SW 
071720Z 0718/0818 19006KT P6SM VCSH SCT022 OVC035 FM071900 19005KT P6SM SCT025 OVC040 FM072300 18006KT P6SM BKN035 OVC050 FM080800 18010KT P6SM -RA BKN020 OVC040 FM081500 19008KT P6SM -SHRA BKN014 OVC025
NOTAMs
Click for the latest NOTAMs
NOTAMs are issued by the DoD/FAA and will open in a separate window not controlled by AirNav.

 

 
 

Would you like to see your business listed on this page?

 If your business provides an interesting product or service to pilots, flight crews, aircraft, or users of the Seattle Seaplanes Seaplane Base, you should consider listing it here.  To start the listing process, click on the button below
 
Add a business
 

Other Pages about Seattle Seaplanes Seaplane Base

Update a link
 
Copyright © AirNav, LLC. All rights reserved. Privacy Policy  Contact